TimeCDT,TemperatureF,Dew PointF,Humidity,Sea Level PressureIn,VisibilityMPH,Wind Direction,Wind SpeedMPH,Gust SpeedMPH,PrecipitationIn,Events,Conditions,WindDirDegrees,DateUTC
12:13 AM,50.0,39.2,66,29.91,10.0,SSW,19.6,27.6,N/A,,Overcast,210,2012-10-13 05:13:00
12:33 AM,50.0,39.2,66,29.91,10.0,SSW,15.0,21.9,N/A,,Overcast,210,2012-10-13 05:33:00
12:53 AM,50.0,39.2,66,29.90,10.0,SW,16.1,21.9,N/A,,Overcast,220,2012-10-13 05:53:00
1:13 AM,50.0,37.4,62,29.89,10.0,SSW,15.0,20.7,N/A,,Overcast,210,2012-10-13 06:13:00
2:13 AM,48.2,41.0,76,29.84,10.0,SSW,12.7,-,N/A,,Scattered Clouds,200,2012-10-13 07:13:00
2:34 AM,48.2,41.0,76,29.82,10.0,SSW,12.7,-,N/A,,Clear,200,2012-10-13 07:34:00
3:34 AM,48.2,42.8,82,29.80,10.0,SSW,15.0,21.9,N/A,,Overcast,200,2012-10-13 08:34:00
3:53 AM,48.2,42.8,82,29.79,10.0,SSW,13.8,17.3,N/A,,Scattered Clouds,200,2012-10-13 08:53:00
4:13 AM,48.2,42.8,82,29.80,10.0,SSW,12.7,-,N/A,,Scattered Clouds,200,2012-10-13 09:13:00
4:34 AM,50.0,42.8,76,29.79,10.0,SSW,15.0,19.6,N/A,,Overcast,200,2012-10-13 09:34:00
5:33 AM,50.0,44.6,82,29.75,10.0,SSW,11.5,-,N/A,,Overcast,200,2012-10-13 10:33:00
5:53 AM,50.0,44.6,82,29.75,10.0,SSW,11.5,-,N/A,,Overcast,210,2012-10-13 10:53:00
6:13 AM,50.0,44.6,82,29.75,10.0,SSW,13.8,-,N/A,,Overcast,200,2012-10-13 11:13:00
6:33 AM,48.2,44.6,87,29.75,7.0,South,10.4,18.4,N/A,,Overcast,190,2012-10-13 11:33:00
6:53 AM,48.2,44.6,87,29.74,7.0,SSW,12.7,-,N/A,,Overcast,200,2012-10-13 11:53:00
7:13 AM,48.2,44.6,87,29.73,7.0,SSW,11.5,19.6,N/A,,Overcast,200,2012-10-13 12:13:00
7:53 AM,48.2,46.4,93,29.72,4.0,South,8.1,-,N/A,,Overcast,180,2012-10-13 12:53:00
8:13 AM,48.2,46.4,93,29.72,3.0,SSW,5.8,-,N/A,,Overcast,200,2012-10-13 13:13:00
8:34 AM,48.2,46.4,93,29.73,2.5,SSW,6.9,-,N/A,,Overcast,200,2012-10-13 13:34:00
9:13 AM,48.2,46.4,93,29.72,1.2,SSW,8.1,-,N/A,,Overcast,210,2012-10-13 14:13:00
9:34 AM,48.2,48.2,100,29.72,1.2,SSW,5.8,-,N/A,,Overcast,210,2012-10-13 14:34:00
9:53 AM,50.0,48.2,94,29.71,1.5,SSW,8.1,-,N/A,,Overcast,200,2012-10-13 14:53:00
10:13 AM,51.8,50.0,94,29.70,2.5,South,9.2,-,N/A,,Overcast,190,2012-10-13 15:13:00
10:53 AM,53.6,51.8,94,29.68,5.0,SSW,11.5,-,N/A,,Overcast,200,2012-10-13 15:53:00
11:34 AM,55.4,51.8,88,29.68,5.0,SW,8.1,-,N/A,,Overcast,230,2012-10-13 16:34:00
11:53 AM,55.4,51.8,88,29.68,7.0,SW,10.4,-,N/A,,Overcast,230,2012-10-13 16:53:00
12:13 PM,57.2,51.8,82,29.68,7.0,SW,11.5,-,N/A,,Overcast,220,2012-10-13 17:13:00
12:34 PM,57.2,51.8,82,29.68,7.0,SW,8.1,-,N/A,,Overcast,230,2012-10-13 17:34:00
12:53 PM,59.0,51.8,77,29.68,10.0,WSW,8.1,-,N/A,,Overcast,240,2012-10-13 17:53:00
1:13 PM,59.0,51.8,77,29.68,10.0,West,5.8,-,N/A,,Overcast,270,2012-10-13 18:13:00
1:34 PM,60.8,50.0,68,29.67,10.0,NW,4.6,-,N/A,,Overcast,310,2012-10-13 18:34:00
1:53 PM,60.8,51.8,72,29.66,10.0,WNW,4.6,-,N/A,,Mostly Cloudy,300,2012-10-13 18:53:00
2:13 PM,62.6,50.0,63,29.66,10.0,WSW,5.8,-,N/A,,Clear,240,2012-10-13 19:13:00
2:34 PM,62.6,50.0,63,29.66,10.0,NNW,6.9,-,N/A,,Clear,330,2012-10-13 19:34:00
2:53 PM,64.4,50.0,59,29.66,10.0,NW,8.1,-,N/A,,Clear,310,2012-10-13 19:53:00
3:13 PM,64.4,50.0,59,29.66,10.0,North,5.8,-,N/A,,Clear,350,2012-10-13 20:13:00
3:33 PM,66.2,50.0,56,29.65,10.0,North,3.5,-,N/A,,Clear,350,2012-10-13 20:33:00
3:53 PM,66.2,50.0,56,29.65,10.0,NNW,3.5,-,N/A,,Clear,340,2012-10-13 20:53:00
4:14 PM,66.2,48.2,52,29.65,10.0,Calm,Calm,-,N/A,,Clear,0,2012-10-13 21:14:00
4:53 PM,68.0,48.2,49,29.65,10.0,NW,3.5,-,N/A,,Clear,320,2012-10-13 21:53:00
5:13 PM,68.0,48.2,49,29.66,10.0,Calm,Calm,-,N/A,,Clear,0,2012-10-13 22:13:00
5:33 PM,68.0,48.2,49,29.67,10.0,Calm,Calm,-,N/A,,Clear,0,2012-10-13 22:33:00
5:53 PM,66.2,48.2,52,29.67,10.0,NW,3.5,-,N/A,,Clear,320,2012-10-13 22:53:00
6:13 PM,66.2,48.2,52,29.67,10.0,NNE,4.6,-,N/A,,Clear,30,2012-10-13 23:13:00
6:33 PM,64.4,48.2,56,29.68,10.0,Calm,Calm,-,N/A,,Clear,0,2012-10-13 23:33:00
7:53 PM,57.2,46.4,67,29.73,10.0,NNE,4.6,-,N/A,,Clear,30,2012-10-14 00:53:00
8:13 PM,55.4,44.6,67,29.74,10.0,ENE,4.6,-,N/A,,Clear,60,2012-10-14 01:13:00
8:33 PM,53.6,44.6,72,29.74,10.0,ENE,4.6,-,N/A,,Clear,60,2012-10-14 01:33:00
9:13 PM,53.6,44.6,72,29.74,10.0,ENE,4.6,-,N/A,,Clear,70,2012-10-14 02:13:00
9:33 PM,50.0,42.8,76,29.74,10.0,NE,4.6,-,N/A,,Clear,40,2012-10-14 02:33:00
9:53 PM,50.0,42.8,76,29.74,10.0,NE,5.8,-,N/A,,Clear,50,2012-10-14 02:53:00
10:14 PM,48.2,42.8,82,29.74,10.0,NE,4.6,-,N/A,,Clear,40,2012-10-14 03:14:00
10:33 PM,50.0,42.8,76,29.75,10.0,North,3.5,-,N/A,,Clear,10,2012-10-14 03:33:00
10:53 PM,51.8,44.6,76,29.74,10.0,NNE,5.8,-,N/A,,Clear,20,2012-10-14 03:53:00
11:14 PM,50.0,44.6,82,29.74,10.0,NNE,4.6,-,N/A,,Clear,30,2012-10-14 04:14:00
11:33 PM,50.0,44.6,82,29.74,10.0,NE,3.5,-,N/A,,Clear,50,2012-10-14 04:33:00